Year,Month,Day,Hour,Minute,Value (Times are PST for temperature in C)
2013,09,26,00,00,7.20
2013,09,26,00,01,7.20
2013,09,26,00,02,7.20
2013,09,26,00,03,7.20
2013,09,26,00,04,7.20
2013,09,26,00,05,7.10
2013,09,26,00,06,7.10
2013,09,26,00,07,7.10
2013,09,26,00,08,7.10
2013,09,26,00,09,7.10
2013,09,26,00,10,7.10
2013,09,26,00,11,7.20
2013,09,26,00,12,7.20
2013,09,26,00,13,7.30
2013,09,26,00,14,7.40
2013,09,26,00,15,7.50
2013,09,26,00,16,7.50
2013,09,26,00,17,7.50
2013,09,26,00,18,7.60
2013,09,26,00,19,7.60
2013,09,26,00,20,7.60
2013,09,26,00,21,7.60
2013,09,26,00,22,7.60
2013,09,26,00,23,7.50
2013,09,26,00,24,7.50
2013,09,26,00,25,7.50
2013,09,26,00,26,7.40
2013,09,26,00,27,7.40
2013,09,26,00,28,7.40
2013,09,26,00,29,7.30
2013,09,26,00,30,7.30
2013,09,26,00,31,7.30
2013,09,26,00,32,7.20
2013,09,26,00,33,7.20
2013,09,26,00,34,7.10
2013,09,26,00,35,7.10
2013,09,26,00,36,7.00
2013,09,26,00,37,7.00
2013,09,26,00,38,7.00
2013,09,26,00,39,6.90
2013,09,26,00,40,6.90
2013,09,26,00,41,6.90
2013,09,26,00,42,6.90
2013,09,26,00,43,6.90
2013,09,26,00,44,6.90
2013,09,26,00,45,6.80
2013,09,26,00,46,6.80
2013,09,26,00,47,6.80
2013,09,26,00,48,6.70
2013,09,26,00,49,6.70
2013,09,26,00,50,6.70
2013,09,26,00,51,6.60
2013,09,26,00,52,6.60
2013,09,26,00,53,6.60
2013,09,26,00,54,6.60
2013,09,26,00,55,6.60
2013,09,26,00,56,6.50
2013,09,26,00,57,6.50
2013,09,26,00,58,6.50
2013,09,26,00,59,6.40
2013,09,26,01,00,6.40
2013,09,26,01,01,6.40
2013,09,26,01,02,6.40
2013,09,26,01,03,6.30
2013,09,26,01,04,6.30
2013,09,26,01,05,6.30
2013,09,26,01,06,6.30
2013,09,26,01,07,6.20
2013,09,26,01,08,6.20
2013,09,26,01,09,6.20
2013,09,26,01,10,6.20
2013,09,26,01,11,6.20
2013,09,26,01,12,6.20
2013,09,26,01,13,6.20
2013,09,26,01,14,6.10
2013,09,26,01,15,6.10
2013,09,26,01,16,6.10
2013,09,26,01,17,6.10
2013,09,26,01,18,6.10
2013,09,26,01,19,6.00
2013,09,26,01,20,6.00
2013,09,26,01,21,6.00
2013,09,26,01,22,5.90
2013,09,26,01,23,5.90
2013,09,26,01,24,5.90
2013,09,26,01,25,5.90
2013,09,26,01,26,5.90
2013,09,26,01,27,5.90
2013,09,26,01,28,5.90
2013,09,26,01,29,5.90
2013,09,26,01,30,5.80
2013,09,26,01,31,5.80
2013,09,26,01,32,5.80
2013,09,26,01,33,5.80
2013,09,26,01,34,5.80
2013,09,26,01,35,5.70
2013,09,26,01,36,5.70
2013,09,26,01,37,5.70
2013,09,26,01,38,5.70
2013,09,26,01,39,5.70
2013,09,26,01,40,5.70
2013,09,26,01,41,5.70
2013,09,26,01,42,5.60
2013,09,26,01,43,5.60
2013,09,26,01,44,5.60
2013,09,26,01,45,5.60
2013,09,26,01,46,5.50
2013,09,26,01,47,5.50
2013,09,26,01,48,5.50
2013,09,26,01,49,5.50
2013,09,26,01,50,5.50
2013,09,26,01,51,5.40
2013,09,26,01,52,5.40
2013,09,26,01,53,5.40
2013,09,26,01,54,5.40
2013,09,26,01,55,5.40
2013,09,26,01,56,5.40
2013,09,26,01,57,5.40
2013,09,26,01,58,5.40
2013,09,26,01,59,5.40
2013,09,26,02,00,5.40
2013,09,26,02,01,5.40
2013,09,26,02,02,5.40
2013,09,26,02,03,5.40
2013,09,26,02,04,5.40
2013,09,26,02,05,5.40
2013,09,26,02,06,5.40
2013,09,26,02,07,5.40
2013,09,26,02,08,5.40
2013,09,26,02,09,5.40
2013,09,26,02,10,5.40
2013,09,26,02,11,5.30
2013,09,26,02,12,5.30
2013,09,26,02,13,5.30
2013,09,26,02,14,5.30
2013,09,26,02,15,5.30
2013,09,26,02,16,5.30
2013,09,26,02,17,5.30
2013,09,26,02,18,5.20
2013,09,26,02,19,5.20
2013,09,26,02,20,5.20
2013,09,26,02,21,5.20
2013,09,26,02,22,5.20
2013,09,26,02,23,5.20
2013,09,26,02,24,5.20
2013,09,26,02,25,5.10
2013,09,26,02,26,5.10
2013,09,26,02,27,5.10
2013,09,26,02,28,5.10
2013,09,26,02,29,5.10
2013,09,26,02,30,5.10
2013,09,26,02,31,5.10
2013,09,26,02,32,5.10
2013,09,26,02,33,5.10
2013,09,26,02,34,5.10
2013,09,26,02,35,5.10
2013,09,26,02,36,5.00
2013,09,26,02,37,5.00
2013,09,26,02,38,5.00
2013,09,26,02,39,5.00
2013,09,26,02,40,4.90
2013,09,26,02,41,4.90
2013,09,26,02,42,4.90
2013,09,26,02,43,4.90
2013,09,26,02,44,4.90
2013,09,26,02,45,4.90
2013,09,26,02,46,4.90
2013,09,26,02,47,4.80
2013,09,26,02,48,4.80
2013,09,26,02,49,4.80
2013,09,26,02,50,4.80
2013,09,26,02,51,4.80
2013,09,26,02,52,4.80
2013,09,26,02,53,4.80
2013,09,26,02,54,4.80
2013,09,26,02,55,4.80
2013,09,26,02,56,4.80
2013,09,26,02,57,4.80
2013,09,26,02,58,4.80
2013,09,26,02,59,4.80
2013,09,26,03,00,4.80
2013,09,26,03,01,4.80
2013,09,26,03,02,4.80
2013,09,26,03,03,4.80
2013,09,26,03,04,4.70
2013,09,26,03,05,4.70
2013,09,26,03,06,4.70
2013,09,26,03,07,4.70
2013,09,26,03,08,4.70
2013,09,26,03,09,4.70
2013,09,26,03,10,4.70
2013,09,26,03,11,4.70
2013,09,26,03,12,4.70
2013,09,26,03,13,4.70
2013,09,26,03,14,4.70
2013,09,26,03,15,4.60
2013,09,26,03,16,4.60
2013,09,26,03,17,4.60
2013,09,26,03,18,4.60
2013,09,26,03,19,4.60
2013,09,26,03,20,4.60
2013,09,26,03,21,4.60
2013,09,26,03,22,4.60
2013,09,26,03,23,4.60
2013,09,26,03,24,4.60
2013,09,26,03,25,4.60
2013,09,26,03,26,4.60
2013,09,26,03,27,4.60
2013,09,26,03,28,4.50
2013,09,26,03,29,4.50
2013,09,26,03,30,4.50
2013,09,26,03,31,4.40
2013,09,26,03,32,4.40
2013,09,26,03,33,4.40
2013,09,26,03,34,4.40
2013,09,26,03,35,4.40
2013,09,26,03,36,4.40
2013,09,26,03,37,4.40
2013,09,26,03,38,4.40
2013,09,26,03,39,4.40
2013,09,26,03,40,4.40
2013,09,26,03,41,4.30
2013,09,26,03,42,4.30
2013,09,26,03,43,4.30
2013,09,26,03,44,4.30
2013,09,26,03,45,4.30
2013,09,26,03,46,4.30
2013,09,26,03,47,4.30
2013,09,26,03,48,4.30
2013,09,26,03,49,4.30
2013,09,26,03,50,4.30
2013,09,26,03,51,4.30
2013,09,26,03,52,4.20
2013,09,26,03,53,4.20
2013,09,26,03,54,4.20
2013,09,26,03,55,4.20
2013,09,26,03,56,4.20
2013,09,26,03,57,4.20
2013,09,26,03,58,4.20
2013,09,26,03,59,4.20
2013,09,26,04,00,4.20
2013,09,26,04,01,4.20
2013,09,26,04,02,4.20
2013,09,26,04,03,4.20
2013,09,26,04,04,4.20
2013,09,26,04,05,4.20
2013,09,26,04,06,4.20
2013,09,26,04,07,4.20
2013,09,26,04,08,4.20
2013,09,26,04,09,4.10
2013,09,26,04,10,4.10
2013,09,26,04,11,4.10
2013,09,26,04,12,4.10
2013,09,26,04,13,4.10
2013,09,26,04,14,4.10
2013,09,26,04,15,4.10
2013,09,26,04,16,4.10
2013,09,26,04,17,4.10
2013,09,26,04,18,4.10
2013,09,26,04,19,4.10
2013,09,26,04,20,4.10
2013,09,26,04,21,4.00
2013,09,26,04,22,4.00
2013,09,26,04,23,4.00
2013,09,26,04,24,4.00
2013,09,26,04,25,4.00
2013,09,26,04,26,4.00
2013,09,26,04,27,4.00
2013,09,26,04,28,3.90
2013,09,26,04,29,3.90
2013,09,26,04,30,3.90
2013,09,26,04,31,3.90
2013,09,26,04,32,3.90
2013,09,26,04,33,3.90
2013,09,26,04,34,4.00
2013,09,26,04,35,4.00
2013,09,26,04,36,3.90
2013,09,26,04,37,3.90
2013,09,26,04,38,3.90
2013,09,26,04,39,3.90
2013,09,26,04,40,3.90
2013,09,26,04,41,3.90
2013,09,26,04,42,3.90
2013,09,26,04,43,3.90
2013,09,26,04,44,3.90
2013,09,26,04,45,3.90
2013,09,26,04,46,3.90
2013,09,26,04,47,3.90
2013,09,26,04,48,3.90
2013,09,26,04,49,3.90
2013,09,26,04,50,3.90
2013,09,26,04,51,3.90
2013,09,26,04,52,3.90
2013,09,26,04,53,3.90
2013,09,26,04,54,3.90
2013,09,26,04,55,3.80
2013,09,26,04,56,3.80
2013,09,26,04,57,3.80
2013,09,26,04,58,3.80
2013,09,26,04,59,3.80
2013,09,26,05,00,3.80
2013,09,26,05,01,3.80
2013,09,26,05,02,3.80
2013,09,26,05,03,3.80
2013,09,26,05,04,3.80
2013,09,26,05,05,3.80
2013,09,26,05,06,3.80
2013,09,26,05,07,3.80
2013,09,26,05,08,3.80
2013,09,26,05,09,3.80
2013,09,26,05,10,3.80
2013,09,26,05,11,3.80
2013,09,26,05,12,3.80
2013,09,26,05,13,3.80
2013,09,26,05,14,3.80
2013,09,26,05,15,3.80
2013,09,26,05,16,3.80
2013,09,26,05,17,3.80
2013,09,26,05,18,3.80
2013,09,26,05,19,3.80
2013,09,26,05,20,3.80
2013,09,26,05,21,3.80
2013,09,26,05,22,3.80
2013,09,26,05,23,3.80
2013,09,26,05,24,3.80
2013,09,26,05,25,3.80
2013,09,26,05,26,3.80
2013,09,26,05,27,3.80
2013,09,26,05,28,3.80
2013,09,26,05,29,3.80
2013,09,26,05,30,3.80
2013,09,26,05,31,3.70
2013,09,26,05,32,3.70
2013,09,26,05,33,3.70
2013,09,26,05,34,3.70
2013,09,26,05,35,3.70
2013,09,26,05,36,3.70
2013,09,26,05,37,3.70
2013,09,26,05,38,3.70
2013,09,26,05,39,3.70
2013,09,26,05,40,3.70
2013,09,26,05,41,3.70
2013,09,26,05,42,3.70
2013,09,26,05,43,3.70
2013,09,26,05,44,3.70
2013,09,26,05,45,3.70
2013,09,26,05,46,3.70
2013,09,26,05,47,3.70
2013,09,26,05,48,3.70
2013,09,26,05,49,3.70
2013,09,26,05,50,3.70
2013,09,26,05,51,3.70
2013,09,26,05,52,3.70
2013,09,26,05,53,3.70
2013,09,26,05,54,3.60
2013,09,26,05,55,3.60
2013,09,26,05,56,3.60
2013,09,26,05,57,3.60
2013,09,26,05,58,3.60
2013,09,26,05,59,3.60
2013,09,26,06,00,3.60
2013,09,26,06,01,3.60
2013,09,26,06,02,3.60
2013,09,26,06,03,3.60
2013,09,26,06,04,3.60
2013,09,26,06,05,3.60
2013,09,26,06,06,3.60
2013,09,26,06,07,3.60
2013,09,26,06,08,3.60
2013,09,26,06,09,3.60
2013,09,26,06,10,3.60
2013,09,26,06,11,3.60
2013,09,26,06,12,3.60
2013,09,26,06,13,3.60
2013,09,26,06,14,3.60
2013,09,26,06,15,3.60
2013,09,26,06,16,3.60
2013,09,26,06,17,3.60
2013,09,26,06,18,3.60
2013,09,26,06,19,3.60
2013,09,26,06,20,3.70
2013,09,26,06,21,3.70
2013,09,26,06,22,3.70
2013,09,26,06,23,3.70
2013,09,26,06,24,3.70
2013,09,26,06,25,3.70
2013,09,26,06,26,3.70
2013,09,26,06,27,3.70
2013,09,26,06,28,3.70
2013,09,26,06,29,3.70
2013,09,26,06,30,3.70
2013,09,26,06,31,3.70
2013,09,26,06,32,3.70
2013,09,26,06,33,3.70
2013,09,26,06,34,3.70
2013,09,26,06,35,3.70
2013,09,26,06,36,3.70
2013,09,26,06,37,3.70
2013,09,26,06,38,3.70
2013,09,26,06,39,3.70
2013,09,26,06,40,3.70
2013,09,26,06,41,3.70
2013,09,26,06,42,3.70
2013,09,26,06,43,3.70
2013,09,26,06,44,3.70
2013,09,26,06,45,3.70
2013,09,26,06,46,3.70
2013,09,26,06,47,3.70
2013,09,26,06,48,3.70
2013,09,26,06,49,3.70
2013,09,26,06,50,3.70
2013,09,26,06,51,3.70
2013,09,26,06,52,3.70
2013,09,26,06,53,3.70
2013,09,26,06,54,3.70
2013,09,26,06,55,3.70
2013,09,26,06,56,3.70
2013,09,26,06,57,3.70
2013,09,26,06,58,3.70
2013,09,26,06,59,3.70
2013,09,26,07,00,3.70
2013,09,26,07,01,3.70
2013,09,26,07,02,3.70
2013,09,26,07,03,3.70
2013,09,26,07,04,3.70
2013,09,26,07,05,3.70
2013,09,26,07,06,3.70
2013,09,26,07,07,3.70
2013,09,26,07,08,3.70
2013,09,26,07,09,3.70
2013,09,26,07,10,3.70
2013,09,26,07,11,3.70
2013,09,26,07,12,3.70
2013,09,26,07,13,3.70
2013,09,26,07,14,3.70
2013,09,26,07,15,3.80
2013,09,26,07,16,3.80
2013,09,26,07,17,3.80
2013,09,26,07,18,3.80
2013,09,26,07,19,3.80
2013,09,26,07,20,3.80
2013,09,26,07,21,3.80
2013,09,26,07,22,3.80
2013,09,26,07,23,3.80
2013,09,26,07,24,3.80
2013,09,26,07,25,3.80
2013,09,26,07,26,3.80
2013,09,26,07,27,3.80
2013,09,26,07,28,3.90
2013,09,26,07,29,3.90
2013,09,26,07,30,3.90
2013,09,26,07,31,3.90
2013,09,26,07,32,3.90
2013,09,26,07,33,3.90
2013,09,26,07,34,3.90
2013,09,26,07,35,3.90
2013,09,26,07,36,4.00
2013,09,26,07,37,4.00
2013,09,26,07,38,4.00
2013,09,26,07,39,4.10
2013,09,26,07,40,4.10
2013,09,26,07,41,4.10
2013,09,26,07,42,4.10
2013,09,26,07,43,4.10
2013,09,26,07,44,4.10
2013,09,26,07,45,4.20
2013,09,26,07,46,4.20
2013,09,26,07,47,4.20
2013,09,26,07,48,4.20
2013,09,26,07,49,4.20
2013,09,26,07,50,4.20
2013,09,26,07,51,4.20
2013,09,26,07,52,4.30
2013,09,26,07,53,4.30
2013,09,26,07,54,4.30
2013,09,26,07,55,4.30
2013,09,26,07,56,4.30
2013,09,26,07,57,4.40
2013,09,26,07,58,4.40
2013,09,26,07,59,4.40
2013,09,26,08,00,4.40
2013,09,26,08,01,4.50
2013,09,26,08,02,4.50
2013,09,26,08,03,4.60
2013,09,26,08,04,4.60
2013,09,26,08,05,4.60
2013,09,26,08,06,4.70
2013,09,26,08,07,4.70
2013,09,26,08,08,4.70
2013,09,26,08,09,4.70
2013,09,26,08,10,4.70
2013,09,26,08,11,4.70
2013,09,26,08,12,4.80
2013,09,26,08,13,4.80
2013,09,26,08,14,4.80
2013,09,26,08,15,4.80
2013,09,26,08,16,4.80
2013,09,26,08,17,4.80
2013,09,26,08,18,4.80
2013,09,26,08,19,4.90
2013,09,26,08,20,4.90
2013,09,26,08,21,4.90
2013,09,26,08,22,4.90
2013,09,26,08,23,4.90
2013,09,26,08,24,5.00
2013,09,26,08,25,5.00
2013,09,26,08,26,5.00
2013,09,26,08,27,5.10
2013,09,26,08,28,5.10
2013,09,26,08,29,5.10
2013,09,26,08,30,5.10
2013,09,26,08,31,5.10
2013,09,26,08,32,5.10
2013,09,26,08,33,5.20
2013,09,26,08,34,5.20
2013,09,26,08,35,5.20
2013,09,26,08,36,5.20
2013,09,26,08,37,5.30
2013,09,26,08,38,5.30
2013,09,26,08,39,5.40
2013,09,26,08,40,5.60
2013,09,26,08,41,5.70
2013,09,26,08,42,5.80
2013,09,26,08,43,5.90
2013,09,26,08,44,5.90
2013,09,26,08,45,6.00
2013,09,26,08,46,6.10
2013,09,26,08,47,6.20
2013,09,26,08,48,6.20
2013,09,26,08,49,6.30
2013,09,26,08,50,6.30
2013,09,26,08,51,6.30
2013,09,26,08,52,6.30
2013,09,26,08,53,6.40
2013,09,26,08,54,6.40
2013,09,26,08,55,6.40
2013,09,26,08,56,6.50
2013,09,26,08,57,6.50
2013,09,26,08,58,6.60
2013,09,26,08,59,6.60
2013,09,26,09,00,6.70
2013,09,26,09,01,6.70
2013,09,26,09,02,6.80
2013,09,26,09,03,6.80
2013,09,26,09,04,6.80
2013,09,26,09,05,6.90
2013,09,26,09,06,6.90
2013,09,26,09,07,7.00
2013,09,26,09,08,7.00
2013,09,26,09,09,7.00
2013,09,26,09,10,7.10
2013,09,26,09,11,7.10
2013,09,26,09,12,7.20
2013,09,26,09,13,7.20
2013,09,26,09,14,7.20
2013,09,26,09,15,7.30
2013,09,26,09,16,7.30
2013,09,26,09,17,7.40
2013,09,26,09,18,7.40
2013,09,26,09,19,7.50
2013,09,26,09,20,7.60
2013,09,26,09,21,7.60
2013,09,26,09,22,7.70
2013,09,26,09,23,7.70
2013,09,26,09,24,7.80
2013,09,26,09,25,7.90
2013,09,26,09,26,8.00
2013,09,26,09,27,8.10
2013,09,26,09,28,8.20
2013,09,26,09,29,8.20
2013,09,26,09,30,8.30
2013,09,26,09,31,8.40
2013,09,26,09,32,8.50
2013,09,26,09,33,8.60
2013,09,26,09,34,8.70
2013,09,26,09,35,8.80
2013,09,26,09,36,8.90
2013,09,26,09,37,9.00
2013,09,26,09,38,9.10
2013,09,26,09,39,9.10
2013,09,26,09,40,9.20
2013,09,26,09,41,9.30
2013,09,26,09,42,9.30
2013,09,26,09,43,9.40
2013,09,26,09,44,9.50
2013,09,26,09,45,9.60
2013,09,26,09,46,9.60
2013,09,26,09,47,9.70
2013,09,26,09,48,9.70
2013,09,26,09,49,9.80
2013,09,26,09,50,9.80
2013,09,26,09,51,9.90
2013,09,26,09,52,9.90
2013,09,26,09,53,10.00
2013,09,26,09,54,10.10
2013,09,26,09,55,10.10
2013,09,26,09,56,10.20
2013,09,26,09,57,10.30
2013,09,26,09,58,10.30
2013,09,26,09,59,10.40
2013,09,26,10,00,10.40
2013,09,26,10,01,10.50
2013,09,26,10,02,10.50
2013,09,26,10,03,10.60
2013,09,26,10,04,10.60
2013,09,26,10,05,10.70
2013,09,26,10,06,10.70
2013,09,26,10,07,10.80
2013,09,26,10,08,10.80
2013,09,26,10,09,10.80
2013,09,26,10,10,10.90
2013,09,26,10,11,11.00
2013,09,26,10,12,11.10
2013,09,26,10,13,11.20
2013,09,26,10,14,11.30
2013,09,26,10,15,11.30
2013,09,26,10,16,11.50
2013,09,26,10,17,11.60
2013,09,26,10,18,11.60
2013,09,26,10,19,11.70
2013,09,26,10,20,11.80
2013,09,26,10,21,11.90
2013,09,26,10,22,12.00
2013,09,26,10,23,12.10
2013,09,26,10,24,12.20
2013,09,26,10,25,12.30
2013,09,26,10,26,12.30
2013,09,26,10,27,12.40
2013,09,26,10,28,12.40
2013,09,26,10,29,12.40
2013,09,26,10,30,12.30
2013,09,26,10,31,12.30
2013,09,26,10,32,12.40
2013,09,26,10,33,12.40
2013,09,26,10,34,12.50
2013,09,26,10,35,12.50
2013,09,26,10,36,12.60
2013,09,26,10,37,12.60
2013,09,26,10,38,12.70
2013,09,26,10,39,12.80
2013,09,26,10,40,12.90
2013,09,26,10,41,13.00
2013,09,26,10,42,13.10
2013,09,26,10,43,13.10
2013,09,26,10,44,13.10
2013,09,26,10,45,13.10
2013,09,26,10,46,13.00
2013,09,26,10,47,12.90
2013,09,26,10,48,12.90
2013,09,26,10,49,12.90
2013,09,26,10,50,13.00
2013,09,26,10,51,13.00
2013,09,26,10,52,13.10
2013,09,26,10,53,13.10
2013,09,26,10,54,13.20
2013,09,26,10,55,13.20
2013,09,26,10,56,13.20
2013,09,26,10,57,13.30
2013,09,26,10,58,13.30
2013,09,26,10,59,13.30
2013,09,26,11,00,13.30
2013,09,26,11,01,13.30
2013,09,26,11,02,13.30
2013,09,26,11,03,13.30
2013,09,26,11,04,13.30
2013,09,26,11,05,13.30
2013,09,26,11,06,13.30
2013,09,26,11,07,13.30
2013,09,26,11,08,13.30
2013,09,26,11,09,13.30
2013,09,26,11,10,13.40
2013,09,26,11,11,13.40
2013,09,26,11,12,13.50
2013,09,26,11,13,13.60
2013,09,26,11,14,13.60
2013,09,26,11,15,13.70
2013,09,26,11,16,13.70
2013,09,26,11,17,13.70
2013,09,26,11,18,13.60
2013,09,26,11,19,13.70
2013,09,26,11,20,13.80
2013,09,26,11,21,13.80
2013,09,26,11,22,13.80
2013,09,26,11,23,13.90
2013,09,26,11,24,13.90
2013,09,26,11,25,13.90
2013,09,26,11,26,13.90
2013,09,26,11,27,13.90
2013,09,26,11,28,13.90
2013,09,26,11,29,14.00
2013,09,26,11,30,14.00
2013,09,26,11,31,14.00
2013,09,26,11,32,14.10
2013,09,26,11,33,14.10
2013,09,26,11,34,14.10
2013,09,26,11,35,14.10
2013,09,26,11,36,14.20
2013,09,26,11,37,14.20
2013,09,26,11,38,14.30
2013,09,26,11,39,14.30
2013,09,26,11,40,14.40
2013,09,26,11,41,14.50
2013,09,26,11,42,14.50
2013,09,26,11,43,14.60
2013,09,26,11,44,14.70
2013,09,26,11,45,14.70
2013,09,26,11,46,14.80
2013,09,26,11,47,14.90
2013,09,26,11,48,14.90
2013,09,26,11,49,15.00
2013,09,26,11,50,15.00
2013,09,26,11,51,15.00
2013,09,26,11,52,15.00
2013,09,26,11,53,15.20
2013,09,26,11,54,15.30
2013,09,26,11,55,15.30
2013,09,26,11,56,15.40
2013,09,26,11,57,15.30
2013,09,26,11,58,15.20
2013,09,26,11,59,15.00
2013,09,26,12,00,15.00
2013,09,26,12,01,15.00
2013,09,26,12,02,15.00
2013,09,26,12,03,15.00
2013,09,26,12,04,15.10
2013,09,26,12,05,15.20
2013,09,26,12,06,15.20
2013,09,26,12,07,15.20
2013,09,26,12,08,15.30
2013,09,26,12,09,15.30
2013,09,26,12,10,15.30
2013,09,26,12,11,15.30
2013,09,26,12,12,15.40
2013,09,26,12,13,15.40
2013,09,26,12,14,15.50
2013,09,26,12,15,15.60
2013,09,26,12,16,15.60
2013,09,26,12,17,15.60
2013,09,26,12,18,15.60
2013,09,26,12,19,15.60
2013,09,26,12,20,15.70
2013,09,26,12,21,15.70
2013,09,26,12,22,15.70
2013,09,26,12,23,15.70
2013,09,26,12,24,15.70
2013,09,26,12,25,15.80
2013,09,26,12,26,15.80
2013,09,26,12,27,15.80
2013,09,26,12,28,15.80
2013,09,26,12,29,15.80
2013,09,26,12,30,15.90
2013,09,26,12,31,16.00
2013,09,26,12,32,16.00
2013,09,26,12,33,16.10
2013,09,26,12,34,16.10
2013,09,26,12,35,16.10
2013,09,26,12,36,16.10
2013,09,26,12,37,16.10
2013,09,26,12,38,16.10
2013,09,26,12,39,16.10
2013,09,26,12,40,16.00
2013,09,26,12,41,16.00
2013,09,26,12,42,16.00
2013,09,26,12,43,16.10
2013,09,26,12,44,16.10
2013,09,26,12,45,16.10
2013,09,26,12,46,16.10
2013,09,26,12,47,16.10
2013,09,26,12,48,16.10
2013,09,26,12,49,16.00
2013,09,26,12,50,16.00
2013,09,26,12,51,16.00
2013,09,26,12,52,16.00
2013,09,26,12,53,16.10
2013,09,26,12,54,16.10
2013,09,26,12,55,16.20
2013,09,26,12,56,16.30
2013,09,26,12,57,16.30
2013,09,26,12,58,16.40
2013,09,26,12,59,16.40
2013,09,26,13,00,16.40
2013,09,26,13,01,16.40
2013,09,26,13,02,16.50
2013,09,26,13,03,16.60
2013,09,26,13,04,16.60
2013,09,26,13,05,16.80
2013,09,26,13,06,16.90
2013,09,26,13,07,17.00
2013,09,26,13,08,17.10
2013,09,26,13,09,17.10
2013,09,26,13,10,17.20
2013,09,26,13,11,17.20
2013,09,26,13,12,17.20
2013,09,26,13,13,17.20
2013,09,26,13,14,17.30
2013,09,26,13,15,17.40
2013,09,26,13,16,17.40
2013,09,26,13,17,17.50
2013,09,26,13,18,17.60
2013,09,26,13,19,17.60
2013,09,26,13,20,17.60
2013,09,26,13,21,17.70
2013,09,26,13,22,17.80
2013,09,26,13,23,17.80
2013,09,26,13,24,17.80
2013,09,26,13,25,17.70
2013,09,26,13,26,17.70
2013,09,26,13,27,17.60
2013,09,26,13,28,17.60
2013,09,26,13,29,17.60
2013,09,26,13,30,17.60
2013,09,26,13,31,17.60
2013,09,26,13,32,17.60
2013,09,26,13,33,17.60
2013,09,26,13,34,17.60
2013,09,26,13,35,17.60
2013,09,26,13,36,17.70
2013,09,26,13,37,17.70
2013,09,26,13,38,17.70
2013,09,26,13,39,17.80
2013,09,26,13,40,17.80
2013,09,26,13,41,17.70
2013,09,26,13,42,17.60
2013,09,26,13,43,17.60
2013,09,26,13,44,17.60
2013,09,26,13,45,17.60
2013,09,26,13,46,17.60
2013,09,26,13,47,17.50
2013,09,26,13,48,17.50
2013,09,26,13,49,17.60
2013,09,26,13,50,17.60
2013,09,26,13,51,17.70
2013,09,26,13,52,17.80
2013,09,26,13,53,18.00
2013,09,26,13,54,18.10
2013,09,26,13,55,18.20
2013,09,26,13,56,18.20
2013,09,26,13,57,18.30
2013,09,26,13,58,18.30
2013,09,26,13,59,18.30
2013,09,26,14,00,18.20
2013,09,26,14,01,18.20
2013,09,26,14,02,18.10
2013,09,26,14,03,18.10
2013,09,26,14,04,18.00
2013,09,26,14,05,18.00
2013,09,26,14,06,18.00
2013,09,26,14,07,18.00
2013,09,26,14,08,17.90
2013,09,26,14,09,17.90
2013,09,26,14,10,17.90
2013,09,26,14,11,17.90
2013,09,26,14,12,18.00
2013,09,26,14,13,18.00
2013,09,26,14,14,18.10
2013,09,26,14,15,18.10
2013,09,26,14,16,18.10
2013,09,26,14,17,18.10
2013,09,26,14,18,18.10
2013,09,26,14,19,18.10
2013,09,26,14,20,18.10
2013,09,26,14,21,18.10
2013,09,26,14,22,18.10
2013,09,26,14,23,18.20
2013,09,26,14,24,18.20
2013,09,26,14,25,18.20
2013,09,26,14,34,18.10
2013,09,26,14,35,18.00
2013,09,26,14,36,17.90
2013,09,26,14,37,17.90
2013,09,26,14,38,17.90
2013,09,26,14,39,17.90
2013,09,26,14,40,17.90
2013,09,26,14,41,17.90
2013,09,26,14,42,17.90
2013,09,26,14,43,17.90
2013,09,26,14,44,17.90
2013,09,26,14,45,18.00
2013,09,26,14,46,18.10
2013,09,26,14,47,18.20
2013,09,26,14,48,18.20
2013,09,26,14,49,18.30
2013,09,26,14,50,18.30
2013,09,26,14,51,18.30
2013,09,26,14,52,18.30
2013,09,26,14,53,18.20
2013,09,26,14,54,18.20
2013,09,26,14,55,18.20
2013,09,26,14,56,18.10
2013,09,26,14,57,18.10
2013,09,26,14,58,18.10
2013,09,26,14,59,18.10
2013,09,26,15,00,18.10
2013,09,26,15,01,18.20
2013,09,26,15,02,18.20
2013,09,26,15,03,18.20
2013,09,26,15,04,18.30
2013,09,26,15,05,18.30
2013,09,26,15,06,18.30
2013,09,26,15,07,18.30
2013,09,26,15,08,18.30
2013,09,26,15,09,18.20
2013,09,26,15,10,18.20
2013,09,26,15,11,18.20
2013,09,26,15,12,18.10
2013,09,26,15,13,18.10
2013,09,26,15,14,18.10
2013,09,26,15,15,18.10
2013,09,26,15,16,18.20
2013,09,26,15,17,18.10
2013,09,26,15,18,18.10
2013,09,26,15,19,18.00
2013,09,26,15,20,18.00
2013,09,26,15,21,17.90
2013,09,26,15,22,17.90
2013,09,26,15,23,17.90
2013,09,26,15,24,17.90
2013,09,26,15,25,17.90
2013,09,26,15,26,17.90
2013,09,26,15,27,18.00
2013,09,26,15,28,18.00
2013,09,26,15,29,18.00
2013,09,26,15,30,18.00
2013,09,26,15,31,18.00
2013,09,26,15,32,18.10
2013,09,26,15,33,18.10
2013,09,26,15,34,18.10
2013,09,26,15,35,18.20
2013,09,26,15,36,18.20
2013,09,26,15,37,18.30
2013,09,26,15,38,18.40
2013,09,26,15,39,18.50
2013,09,26,15,40,18.60
2013,09,26,15,41,18.80
2013,09,26,15,42,18.80
2013,09,26,15,43,18.90
2013,09,26,15,44,18.80
2013,09,26,15,45,18.80
2013,09,26,15,46,18.70
2013,09,26,15,47,18.60
2013,09,26,15,48,18.50
2013,09,26,15,49,18.40
2013,09,26,15,50,18.30
2013,09,26,15,51,18.20
2013,09,26,15,52,18.10
2013,09,26,15,53,18.00
2013,09,26,15,54,18.00
2013,09,26,15,55,17.90
2013,09,26,15,56,17.90
2013,09,26,15,57,17.90
2013,09,26,15,58,17.90
2013,09,26,15,59,17.90
2013,09,26,16,00,17.90
2013,09,26,16,01,18.00
2013,09,26,16,02,18.00
2013,09,26,16,03,18.00
2013,09,26,16,04,18.10
2013,09,26,16,05,18.10
2013,09,26,16,06,18.10
2013,09,26,16,07,18.10
2013,09,26,16,08,18.10
2013,09,26,16,09,18.10
2013,09,26,16,10,18.10
2013,09,26,16,11,18.10
2013,09,26,16,12,18.00
2013,09,26,16,13,18.00
2013,09,26,16,14,18.00
2013,09,26,16,15,18.10
2013,09,26,16,16,18.10
2013,09,26,16,17,18.00
2013,09,26,16,18,18.00
2013,09,26,16,19,18.00
2013,09,26,16,20,18.00
2013,09,26,16,21,18.10
2013,09,26,16,22,18.10
2013,09,26,16,23,18.10
2013,09,26,16,24,18.10
2013,09,26,16,25,18.10
2013,09,26,16,26,18.10
2013,09,26,16,27,18.00
2013,09,26,16,28,18.00
2013,09,26,16,29,18.00
2013,09,26,16,30,18.00
2013,09,26,16,31,18.00
2013,09,26,16,32,18.00
2013,09,26,16,33,17.90
2013,09,26,16,34,17.90
2013,09,26,16,35,17.90
2013,09,26,16,36,17.90
2013,09,26,16,37,17.90
2013,09,26,16,38,17.90
2013,09,26,16,39,17.80
2013,09,26,16,40,17.80
2013,09,26,16,41,17.80
2013,09,26,16,42,17.80
2013,09,26,16,43,17.80
2013,09,26,16,44,17.80
2013,09,26,16,45,17.80
2013,09,26,16,46,17.70
2013,09,26,16,47,17.70
2013,09,26,16,48,17.70
2013,09,26,16,49,17.70
2013,09,26,16,50,17.70
2013,09,26,16,51,17.70
2013,09,26,16,52,17.70
2013,09,26,16,53,17.70
2013,09,26,16,54,17.80
2013,09,26,16,55,17.80
2013,09,26,16,56,17.80
2013,09,26,16,57,17.80
2013,09,26,16,58,17.80
2013,09,26,16,59,17.80
2013,09,26,17,00,17.80
2013,09,26,17,01,17.80
2013,09,26,17,02,17.80
2013,09,26,17,03,17.80
2013,09,26,17,04,17.80
2013,09,26,17,05,17.80
2013,09,26,17,06,17.80
2013,09,26,17,07,17.80
2013,09,26,17,08,17.80
2013,09,26,17,09,17.70
2013,09,26,17,10,17.70
2013,09,26,17,11,17.60
2013,09,26,17,12,17.60
2013,09,26,17,13,17.50
2013,09,26,17,14,17.50
2013,09,26,17,15,17.40
2013,09,26,17,16,17.40
2013,09,26,17,17,17.30
2013,09,26,17,18,17.30
2013,09,26,17,19,17.30
2013,09,26,17,20,17.30
2013,09,26,17,21,17.30
2013,09,26,17,22,17.20
2013,09,26,17,23,17.20
2013,09,26,17,24,17.20
2013,09,26,17,25,17.20
2013,09,26,17,26,17.20
2013,09,26,17,27,17.20
2013,09,26,17,28,17.10
2013,09,26,17,29,17.10
2013,09,26,17,30,17.10
2013,09,26,17,31,17.10
2013,09,26,17,32,17.10
2013,09,26,17,33,17.00
2013,09,26,17,34,17.00
2013,09,26,17,35,17.00
2013,09,26,17,36,17.00
2013,09,26,17,37,17.00
2013,09,26,17,38,17.00
2013,09,26,17,39,16.90
2013,09,26,17,40,16.90
2013,09,26,17,41,16.90
2013,09,26,17,42,16.80
2013,09,26,17,43,16.70
2013,09,26,17,44,16.70
2013,09,26,17,45,16.60
2013,09,26,17,46,16.60
2013,09,26,17,47,16.50
2013,09,26,17,48,16.40
2013,09,26,17,49,16.30
2013,09,26,17,50,16.20
2013,09,26,17,51,16.10
2013,09,26,17,52,16.10
2013,09,26,17,53,16.00